Weather History for Stuart, FL

Change the Weather History Date:

Friday, January 18, 2013

  Actual Average Record
Temperature  
Mean Temperature 60 °F -  
Max Temperature 71 °F 73 °F 86 °F (1960)
Min Temperature 50 °F 51 °F 30 °F (1965)
Degree Days  
Heating Degree Days 4    
Growing Degree Days 10 (Base 50)    
Moisture  
Dew Point 51 °F    
Average Humidity 69    
Maximum Humidity 83    
Minimum Humidity 50    
Precipitation  
Precipitation 0.00 in - - ()
Sea Level Pressure  
Sea Level Pressure 30.19 in    
Wind  
Wind Speed 12 mph (North)    
Max Wind Speed 18 mph    
Max Gust Speed 25 mph    
Visibility 10 miles    
Events Rain    
Averages and records for this station are not official NWS values.
T = Trace of Precipitation, MM = Missing Value Source: NWS Daily Summary

Daily Weather History Graph

Daily Weather History Graph

Search for Another Location

Airport:

Trip Planner

Search our weather history database for the weather conditions in past years. The results will help you decide how hot, cold, wet, or windy it might be!

Date:

Astronomy

Jan. 18, 2013 Rise Set
Actual Time 7:11 AM EST 5:51 PM EST
Civil Twilight 6:46 AM EST 6:16 PM EST
Nautical Twilight 6:18 AM EST 6:45 PM EST
Astronomical Twilight 5:50 AM EST 7:13 PM EST
Moon 11:33 AM EST (1/18) No Moon Set
Length of Visible Light 11h 30m
Length of Day
10h 40m
Waxing Crescent, 47% of the Moon is Illuminated
Jan 18
Waxing Crescent
Jan 18
First Quarter
Jan 26
Full
Feb 3
Last Quarter
Feb 10
New

Hourly Weather History & Observations

Time (EST) Temp. Dew Point Humidity Pressure Visibility Wind Dir Wind Speed Gust Speed Precip Events Conditions
12:15 AM 59.0 °F 46.4 °F 63% 30.12 in 10.0 mi WNW 17.3 mph 25.3 mph N/A   Clear
12:35 AM 57.2 °F 46.4 °F 67% 30.12 in 10.0 mi WNW 11.5 mph 19.6 mph N/A   Clear
12:55 AM 57.2 °F 46.4 °F 67% 30.12 in 10.0 mi WNW 9.2 mph - N/A   Clear
1:15 AM 55.4 °F 46.4 °F 72% 30.12 in 10.0 mi WNW 10.4 mph - N/A   Clear
1:35 AM 55.4 °F 46.4 °F 72% 30.12 in 10.0 mi WNW 10.4 mph - N/A   Clear
1:55 AM 55.4 °F 46.4 °F 72% 30.12 in 10.0 mi WNW 9.2 mph - N/A   Clear
2:15 AM 55.4 °F 46.4 °F 72% 30.12 in 10.0 mi NW 12.7 mph - N/A   Clear
2:35 AM 55.4 °F 46.4 °F 72% 30.13 in 10.0 mi WNW 11.5 mph 18.4 mph N/A   Clear
2:55 AM 55.4 °F 46.4 °F 72% 30.13 in 10.0 mi NW 10.4 mph 23.0 mph N/A   Clear
3:15 AM 53.6 °F 46.4 °F 77% 30.13 in 10.0 mi NW 12.7 mph 18.4 mph N/A   Clear
3:35 AM 53.6 °F 46.4 °F 77% 30.14 in 10.0 mi NW 13.8 mph 19.6 mph N/A   Clear
3:55 AM 53.6 °F 46.4 °F 77% 30.15 in 10.0 mi NW 12.7 mph 18.4 mph N/A   Clear
4:15 AM 51.8 °F 46.4 °F 82% 30.16 in 10.0 mi NW 10.4 mph - N/A   Scattered Clouds
4:35 AM 51.8 °F 46.4 °F 82% 30.16 in 10.0 mi NW 9.2 mph - N/A   Clear
4:55 AM 51.8 °F 46.4 °F 82% 30.16 in 10.0 mi NNW 9.2 mph - N/A   Clear
5:15 AM 51.8 °F 44.6 °F 76% 30.17 in 10.0 mi NNW 8.1 mph - N/A   Scattered Clouds
6:47 AM 50.0 °F 41.0 °F 71% 30.20 in 7.0 mi NW 12.7 mph 17.3 mph N/A   Mostly Cloudy
7:50 AM 50.0 °F 41.0 °F 71% 30.23 in 7.0 mi NW 9.2 mph - N/A   Mostly Cloudy
8:47 AM 50.0 °F 42.8 °F 76% 30.24 in 7.0 mi NW 9.2 mph - N/A   Scattered Clouds
9:47 AM 53.6 °F 44.6 °F 72% 30.25 in 10.0 mi NW 10.4 mph - N/A   Partly Cloudy
10:47 AM 57.2 °F 46.4 °F 67% 30.24 in 10.0 mi NW 8.1 mph - N/A   Partly Cloudy
12:47 PM 66.2 °F 53.6 °F 64% 30.20 in 10.0 mi NNW 10.4 mph - N/A   Scattered Clouds
1:47 PM 68.0 °F 55.4 °F 64% 30.19 in 10.0 mi NNE 6.9 mph - N/A   Scattered Clouds
2:47 PM 71.6 °F 51.8 °F 50% 30.17 in 10.0 mi NE 12.7 mph - N/A   Mostly Cloudy
3:47 PM 71.6 °F 53.6 °F 53% 30.18 in 10.0 mi ENE 11.5 mph - N/A   Mostly Cloudy
5:47 PM 69.8 °F 55.4 °F 60% 30.21 in 7.0 mi ENE 17.3 mph 23.0 mph N/A   Mostly Cloudy
6:47 PM 69.8 °F 53.6 °F 56% 30.22 in 7.0 mi NE 16.1 mph 20.7 mph N/A   Mostly Cloudy
7:15 PM 69.8 °F 53.6 °F 56% 30.23 in 10.0 mi ENE 15.0 mph 19.6 mph N/A   Scattered Clouds
7:35 PM 68.0 °F 53.6 °F 60% 30.23 in 10.0 mi ENE 16.1 mph - N/A   Clear
7:55 PM 69.8 °F 51.8 °F 53% 30.23 in 10.0 mi ENE 13.8 mph 19.6 mph N/A   Scattered Clouds
8:15 PM 69.8 °F 53.6 °F 56% 30.23 in 10.0 mi ENE 13.8 mph - N/A   Scattered Clouds
8:35 PM 69.8 °F 53.6 °F 56% 30.23 in 10.0 mi ENE 15.0 mph 21.9 mph N/A   Scattered Clouds
8:55 PM 69.8 °F 55.4 °F 60% 30.23 in 10.0 mi ENE 13.8 mph 17.3 mph N/A   Mostly Cloudy
9:15 PM 69.8 °F 57.2 °F 64% 30.23 in 10.0 mi ENE 18.4 mph - N/A   Mostly Cloudy
9:35 PM 68.0 °F 59.0 °F 73% 30.23 in 10.0 mi ENE 16.1 mph 24.2 mph N/A   Scattered Clouds
9:55 PM 68.0 °F 57.2 °F 68% 30.23 in 10.0 mi East 12.7 mph - N/A   Scattered Clouds
10:35 PM 69.8 °F 60.8 °F 73% 30.23 in 7.0 mi East 13.8 mph 21.9 mph N/A Rain Rain
10:55 PM 68.0 °F 60.8 °F 78% 30.22 in 10.0 mi ENE 12.7 mph 18.4 mph N/A   Overcast
11:15 PM 68.0 °F 60.8 °F 78% 30.22 in 10.0 mi ENE 12.7 mph - N/A   Overcast
11:35 PM 68.0 °F 62.6 °F 83% 30.21 in 10.0 mi East 15.0 mph 18.4 mph N/A   Overcast
11:55 PM 68.0 °F 60.8 °F 78% 30.21 in 10.0 mi East 11.5 mph 19.6 mph N/A   Overcast